{"data":{"norad_id":60423,"epoch":"2026-05-23T13:39:08.439552Z","epoch_age_seconds":208857,"freshness":"STALE","line1":"1 60423U 24143B   26143.56884768 -.00000069  00000+0  00000+0 0  9991","line2":"2 60423  62.8072  46.5193 5596832 269.3265  29.7887  1.50428815 11233","mean_motion":1.50428815,"eccentricity":0.5596832,"inclination_deg":62.8072,"raan_deg":46.5193,"arg_perigee_deg":269.3265,"mean_anomaly_deg":29.7887,"bstar":0,"rev_number":1123,"period_min":957.26340728005,"perigee_km":7788.9232560888,"apogee_km":43804.199614931,"semimajor_km":32174.69843551,"source":"CELESTRAK","updated_at":"2026-05-25T13:38:02.074422Z"}}